Weather History for Skagway, AK

Change the Weather History Date:

Monday, March 3, 2014

  Actual Average Record
Temperature  
Mean Temperature 22 °F -  
Max Temperature 26 °F 32 °F 46 °F (2005)
Min Temperature 18 °F 24 °F 3 °F (2007)
Degree Days  
Heating Degree Days 43    
Moisture  
Dew Point -10 °F    
Average Humidity 26    
Maximum Humidity 30    
Minimum Humidity 19    
Precipitation  
Precipitation 0.00 in - - ()
Sea Level Pressure  
Sea Level Pressure 30.05 in    
Wind  
Wind Speed 20 mph (NNE)    
Max Wind Speed 30 mph    
Max Gust Speed 37 mph    
Visibility 10 miles    
Events      
Averages and records for this station are not official NWS values.
T = Trace of Precipitation, MM = Missing Value Source: NWS Daily Summary

Daily Weather History Graph

Daily Weather History Graph

Search for Another Location

Airport:

Trip Planner

Search our weather history database for the weather conditions in past years. The results will help you decide how hot, cold, wet, or windy it might be!

Date:

Astronomy

Mar. 03, 2014 Rise Set
Actual Time 6:52 AM AKST 5:35 PM AKST
Civil Twilight 6:11 AM AKST 6:16 PM AKST
Nautical Twilight 5:24 AM AKST 7:03 PM AKST
Astronomical Twilight 4:35 AM AKST 7:52 PM AKST
Moon 7:19 AM AKST (3/3) 9:41 PM AKST (3/3)
Length of Visible Light 12h 04m
Length of Day
10h 42m
Waxing Crescent, 9% of the Moon is Illuminated
Mar 3
Waxing Crescent
Mar 8
First Quarter
Mar 16
Full
Mar 23
Last Quarter
Mar 30
New

Hourly Weather History & Observations

Time (AKST) Temp. Windchill Dew Point Humidity Pressure Visibility Wind Dir Wind Speed Gust Speed Precip Events Conditions
12:53 AM 21.0 °F 6.2 °F -8.0 °F 28% 30.06 in 10.0 mi NNE 18.4 mph 26.5 mph N/A   Clear
1:53 AM 19.9 °F 4.3 °F -7.1 °F 30% 30.06 in 10.0 mi NNE 19.6 mph 26.5 mph N/A   Clear
2:53 AM 19.9 °F 4.8 °F -8.0 °F 29% 30.06 in 10.0 mi NNE 18.4 mph 26.5 mph N/A   Clear
3:53 AM 19.9 °F 3.9 °F -8.0 °F 29% 30.05 in 10.0 mi NNE 20.7 mph 31.1 mph N/A   Clear
4:53 AM 19.0 °F 2.0 °F -9.0 °F 29% 30.05 in 10.0 mi NNE 23.0 mph 36.8 mph N/A   Clear
5:53 AM 19.0 °F 2.7 °F -9.0 °F 29% 30.04 in 10.0 mi NNE 20.7 mph 33.4 mph N/A   Clear
6:53 AM 18.0 °F -0.2 °F -11.0 °F 27% 30.04 in 10.0 mi NNE 25.3 mph 33.4 mph N/A   Clear
7:53 AM 18.0 °F -0.8 °F -11.9 °F 26% 30.05 in 10.0 mi NE 27.6 mph 34.5 mph N/A   Clear
8:53 AM 18.0 °F -1.4 °F -11.9 °F 26% 30.05 in 10.0 mi NE 29.9 mph 35.7 mph N/A   Clear
9:53 AM 19.0 °F 1.0 °F -11.9 °F 25% 30.05 in 10.0 mi NE 26.5 mph 36.8 mph N/A   Clear
10:53 AM 23.0 °F 6.6 °F -11.9 °F 21% 30.06 in 10.0 mi NE 25.3 mph 33.4 mph N/A   Clear
11:53 AM 24.1 °F 8.3 °F -11.9 °F 20% 30.05 in 10.0 mi NE 24.2 mph 34.5 mph N/A   Clear
12:53 PM 25.0 °F 8.9 °F -11.9 °F 19% 30.03 in 10.0 mi NE 26.5 mph 34.5 mph N/A   Clear
1:53 PM 25.0 °F 10.2 °F -9.0 °F 22% 30.03 in 10.0 mi NE 21.9 mph 31.1 mph N/A   Clear
2:53 PM 26.1 °F 12.3 °F -9.0 °F 21% 30.03 in 10.0 mi NNE 19.6 mph 24.2 mph N/A   Clear
3:53 PM 25.0 °F 12.2 °F -9.0 °F 22% 30.03 in 10.0 mi NNE 16.1 mph - N/A   Clear
4:53 PM 24.1 °F 13.1 °F -9.0 °F 23% 30.03 in 10.0 mi NNE 11.5 mph - N/A   Clear
5:53 PM 21.9 °F 9.2 °F -8.0 °F 27% 30.04 in 10.0 mi NNE 13.8 mph - N/A   Clear
6:53 PM 21.9 °F 10.4 °F -9.0 °F 25% 30.06 in 10.0 mi NNE 11.5 mph - N/A   Clear
7:53 PM 21.0 °F 8.6 °F -9.0 °F 26% 30.06 in 10.0 mi NNE 12.7 mph 23.0 mph N/A   Clear
8:53 PM 19.9 °F 7.3 °F -9.0 °F 27% 30.07 in 10.0 mi NNE 12.7 mph - N/A   Clear
9:53 PM 19.9 °F 5.7 °F -9.0 °F 27% 30.07 in 10.0 mi NNE 16.1 mph - N/A   Clear
10:53 PM 19.0 °F 4.5 °F -9.0 °F 29% 30.08 in 10.0 mi NNE 16.1 mph - N/A   Clear
11:53 PM 19.0 °F 4.5 °F -9.9 °F 27% 30.09 in 10.0 mi NE 16.1 mph 24.2 mph N/A   Clear